Location: Taupo
(38.6830°S, 176.0830°E)
Time: 13:50:40
(UTC+12:00)

ISS - Visible Passes

Search period start: 01 July 2022 00:00
Search period end: 11 July 2022 00:00
Orbit: 414 x 420 km, 51.6° (Epoch: 30 June)

Date Brightness Start Highest point End Pass type
(mag) Time Alt. Az. Time Alt. Az. Time Alt. Az.
01 Jul -1.0 18:58:35 10° SSW 18:58:46 11° SSW 18:58:46 11° SSW visible
02 Jul -1.5 18:10:45 10° SSW 18:12:16 12° SSE 18:12:40 12° SSE visible
03 Jul -1.5 18:58:27 10° SSW 18:59:35 17° SSW 18:59:35 17° SSW visible
04 Jul -2.2 18:10:29 10° SSW 18:13:04 20° SSE 18:13:41 19° SE visible
05 Jul -2.8 18:58:29 10° SW 19:00:53 41° SSW 19:00:53 41° SSW visible
06 Jul -3.2 18:10:20 10° SW 18:13:35 40° SSE 18:15:21 22° E visible
06 Jul -0.5 19:47:32 10° W 19:48:20 14° W 19:48:20 14° W visible
07 Jul -2.3 18:58:51 10° WSW 19:02:02 37° NW 19:03:08 28° N visible
08 Jul -3.5 18:10:25 10° SW 18:13:49 71° NW 18:17:11 10° NE visible
09 Jul -0.5 19:00:21 10° W 19:01:53 13° NW 19:03:26 10° NNW visible
10 Jul -1.0 18:11:03 10° WSW 18:13:46 22° NW 18:16:28 10° N visible
